Temperature
20 20 20 20 19 18 19 20 20 20 20 20 20 19 18 18 18 17 16 17 17 17 17 17 17 17 17 17 17 17 17 17 17 17 17 17 17 17 17 17 17 17 17 17 17 17 17 17 17
21 21 20 20 18 19 19 19 19 20 20 20 20 19 18 17 17 16 16 17 17 17 17 17 17 17 17 17 17 17 17 17 17 17 17 17 17 16 16 17 17 17 17 17 17 17 17 17 17
21 21 20 18 19 19 19 19 20 21 21 20 19 18 18 17 17 17 17 17 17 17 17 17 17 17 17 17 17 17 17 17 17 17 17 16 16 16 16 16 16 16 17 17 17 17 17 17 17
21 21 20 18 19 20 20 19 20 20 20 20 19 18 17 17 17 17 17 17 17 17 17 17 17 17 17 17 17 17 17 17 17 16 16 16 16 16 16 16 16 16 16 17 17 17 17 17 17
21 21 19 19 20 20 20 20 20 20 20 19 18 17 17 17 17 17 17 17 18 17 17 17 17 17 17 17 17 17 17 17 17 16 16 16 16 16 16 16 16 16 16 16 17 17 17 17 17
21 19 18 19 20 20 20 20 20 19 19 19 18 17 17 17 17 17 17 17 17 17 17 17 17 17 17 17 17 17 17 16 16 16 16 16 16 16 16 16 16 16 16 16 16 17 17 17 17
20 18 19 19 20 20 20 21 20 19 19 19 18 17 17 17 17 17 17 17 17 17 17 17 17 17 17 17 17 16 16 16 16 16 16 16 16 16 16 16 16 16 16 16 16 16 17 16 16
22 18 19 19 19 20 21 21 20 20 19 19 19 17 17 17 17 17 17 17 17 17 17 17 17 17 17 17 17 16 16 16 16 16 16 16 16 16 16 16 16 16 16 16 16 16 16 16 16
21 18 18 19 19 19 20 20 20 20 20 19 19 18 18 17 17 17 17 17 17 17 17 17 17 17 17 17 16 16 16 16 16 16 16 16 16 16 16 16 16 16 16 16 16 16 16 16 16
20 18 19 20 19 19 20 20 20 19 18 18 18 18 18 18 18 18 18 17 17 17 17 17 17 17 17 17 16 16 16 16 16 16 16 16 16 16 16 16 16 16 16 16 16 16 16 16 16
20 19 20 20 20 20 20 20 20 19 18 18 18 18 18 18 18 18 18 18 18 18 17 17 17 17 17 17 17 17 16 16 16 16 16 16 16 16 16 16 16 16 16 16 16 16 16 16 16
19 20 20 20 21 21 20 20 20 19 19 19 19 19 18 18 18 18 18 18 18 18 18 17 17 17 17 17 17 17 16 16 16 16 16 16 16 16 16 16 16 16 16 16 16 16 16 16 16
19 20 20 21 21 21 20 20 19 19 19 19 19 18 18 18 18 18 18 18 18 18 18 18 17 17 17 17 17 17 17 16 16 16 16 16 16 16 16 16 16 16 16 16 16 16 16 16 16
20 20 20 20 21 20 20 19 19 19 19 19 19 19 19 19 19 18 19 18 18 18 18 18 18 17 17 17 17 17 17 16 16 16 16 16 16 16 16 16 16 16 16 16 16 16 16 16 16
20 19 19 20 20 20 20 19 18 19 19 19 19 19 19 19 19 19 19 19 19 18 18 18 18 17 17 17 17 17 17 16 16 16 16 16 16 16 16 16 16 16 16 16 16 16 16 16 16
20 19 18 19 20 20 19 18 18 19 19 19 19 19 19 19 19 19 19 19 19 18 18 18 18 17 17 17 17 17 17 16 16 16 16 16 16 16 16 16 16 16 16 16 16 16 16 16 16
18 18 18 19 19 20 19 18 18 19 19 19 19 19 19 19 19 19 19 19 19 19 18 18 18 18 17 17 17 17 17 16 16 16 16 16 16 16 16 16 16 16 16 16 16 16 16 16 15
18 18 18 18 19 19 18 18 18 19 19 19 19 19 19 19 20 20 19 19 19 19 18 18 18 17 17 17 17 17 17 16 16 16 16 16 16 16 16 16 16 16 16 16 16 16 16 16 15
19 19 18 19 20 19 18 18 18 18 19 19 19 19 19 20 20 20 20 19 19 19 18 18 18 18 17 17 17 17 17 16 16 16 16 16 16 16 16 16 16 16 16 16 16 16 16 15 15
19 19 19 19 20 19 18 18 18 18 18 19 19 19 20 20 19 20 19 19 19 19 19 18 18 18 17 17 17 17 17 17 16 16 16 16 16 16 16 16 16 16 16 16 16 16 16 15 15
19 19 19 19 19 19 19 18 18 18 19 19 19 20 20 20 20 20 19 19 19 19 19 18 18 18 18 17 17 17 17 17 16 16 16 16 16 16 16 16 16 16 16 16 16 16 15 15 15
19 20 20 19 18 17 19 17 18 17 18 18 19 19 20 20 20 20 20 19 19 19 19 19 18 18 18 17 17 17 17 17 17 16 16 16 16 16 16 16 16 16 16 16 16 15 15 15 15
19 20 20 19 18 17 18 17 17 17 18 18 19 19 20 20 20 20 20 20 20 19 19 19 18 18 18 18 17 17 17 17 17 16 16 16 16 16 16 16 16 16 16 15 15 15 15 15 15
20 19 19 17 17 17 18 17 17 17 18 19 19 20 20 20 20 20 20 20 20 19 19 19 19 18 18 18 18 17 17 17 17 17 17 16 16 16 16 16 16 16 15 15 15 15 15 15 15
19 17 17 17 17 17 18 18 18 19 19 20 20 20 21 21 20 20 20 20 20 19 19 19 19 19 18 18 18 18 17 17 17 17 17 17 16 16 16 16 16 16 16 15 15 15 15 15 15
18 17 17 17 17 17 18 18 19 21 21 21 21 21 21 21 21 21 20 20 20 20 20 19 19 19 18 18 18 18 17 17 17 17 17 17 16 16 16 16 16 16 15 15 15 15 15 15 14
19 17 17 17 18 17 18 19 20 21 20 20 21 21 20 21 21 21 21 20 20 20 20 20 19 19 19 18 18 18 17 17 17 17 17 17 16 16 16 16 16 16 15 15 15 15 14 14 14
19 18 17 17 17 17 18 18 18 20 20 20 20 20 20 20 21 21 21 21 20 20 20 20 19 19 19 18 18 18 18 17 17 17 17 17 16 16 16 16 16 16 15 15 15 15 14 14 14
19 19 18 16 17 17 17 18 19 19 19 19 20 20 20 20 20 21 21 21 20 20 20 19 19 19 19 18 18 18 18 18 17 17 17 17 16 16 16 16 16 16 15 15 15 15 14 14 14
20 19 18 17 17 17 17 18 20 19 20 20 20 20 21 21 21 21 21 20 20 20 20 19 19 19 19 18 18 18 18 18 17 17 17 17 17 16 16 16 16 15 15 15 15 15 14 14 14
Wind_Speed
1 1 3 3 4 4 3 1 2 3 4 5 9 10 9 6 5 7 3 7 9 7 9 11 13 13 14 13 13 13 13 13 13 12 12 12 12 11 11 11 11 11 10 10 10 9 8 8 8
1 1 3 3 4 3 2 1 4 4 7 7 9 9 8 7 6 7 5 8 9 9 10 11 13 13 13 13 13 13 13 12 12 12 11 11 11 10 10 10 10 10 10 9 9 8 8 7 8
1 1 3 3 3 3 4 3 6 6 6 5 6 6 5 5 5 5 7 9 9 9 10 12 13 13 13 13 13 12 12 12 11 11 11 11 10 10 10 10 9 9 9 8 8 8 8 7 7
2 3 4 4 4 1 5 5 6 7 6 6 7 6 4 3 4 8 10 10 10 8 10 12 13 13 12 12 12 11 11 11 11 11 11 10 10 10 9 9 9 8 8 8 7 7 7 7 7
3 3 4 3 2 2 3 4 5 6 4 6 8 7 5 4 10 12 11 10 10 7 9 12 13 13 12 11 11 10 10 10 9 9 9 9 9 9 8 8 8 7 7 7 7 6 6 6 7
4 4 4 2 3 3 3 4 6 10 9 8 9 7 4 4 9 9 10 9 9 8 9 10 12 12 11 10 10 9 8 8 7 7 7 7 7 7 7 7 7 7 6 6 6 6 6 6 7
4 3 3 4 4 3 4 4 6 8 7 5 6 6 5 4 7 9 9 8 7 8 8 8 9 10 10 9 9 7 7 6 5 5 5 4 4 5 5 5 5 5 5 5 5 5 5 5 6
5 4 2 3 4 2 3 4 5 8 6 5 5 8 7 7 7 8 8 7 6 6 6 7 7 8 7 7 7 6 5 4 4 3 2 2 2 2 3 3 3 4 3 4 4 5 5 6 6
4 4 2 3 5 3 3 5 4 5 7 4 4 6 9 11 9 9 7 5 5 6 4 5 6 6 6 6 5 4 3 3 3 2 1 1 0 1 0 1 1 2 3 4 4 5 6 6 6
4 3 3 3 6 6 5 6 6 6 8 7 8 9 10 10 10 9 8 7 6 6 5 4 5 6 6 4 4 2 1 2 2 2 2 1 1 1 0 0 2 3 4 4 5 5 6 6 6
3 3 2 4 6 7 5 4 4 9 6 10 14 14 11 9 8 8 7 7 7 6 6 6 6 6 5 3 4 3 2 2 3 3 2 2 2 2 2 2 3 4 4 5 6 5 5 5 5
3 2 3 5 5 5 5 4 5 6 7 11 14 14 11 10 8 8 8 6 5 6 6 6 6 5 5 5 4 3 3 4 4 5 4 4 3 2 2 2 2 3 4 4 4 4 5 6 6
4 3 5 6 6 6 7 6 7 7 9 11 12 11 10 10 8 7 7 6 6 6 6 6 6 5 5 5 4 4 4 4 5 7 6 5 4 2 2 3 3 4 4 4 4 5 5 5 6
5 6 6 6 6 5 8 5 6 8 11 12 11 10 9 10 9 8 7 6 6 6 7 6 7 6 6 4 4 4 5 6 8 9 8 7 5 4 4 4 4 4 5 5 5 5 4 3 4
7 7 6 4 4 4 7 5 5 10 12 11 10 9 8 8 9 10 9 8 8 8 8 7 7 7 6 5 5 5 6 7 8 8 10 10 8 7 6 4 4 5 6 7 7 6 6 4 5
4 5 3 0 2 2 6 5 5 9 11 10 9 8 8 8 9 9 9 8 8 9 8 7 8 8 6 5 6 6 7 7 7 9 10 10 9 9 8 5 4 6 8 6 4 4 4 4 4
2 3 4 2 2 2 4 5 5 7 11 10 9 8 8 7 7 8 9 10 10 10 9 7 7 7 6 5 5 6 6 6 6 8 9 9 10 10 9 6 5 7 7 5 4 4 3 4 4
4 4 3 4 3 4 5 5 6 8 9 9 8 7 7 7 8 8 9 10 10 9 9 8 7 7 6 5 4 4 4 4 5 7 8 9 9 10 9 6 6 8 5 5 4 4 4 3 3
5 4 4 3 4 5 5 5 6 7 7 8 8 7 7 7 7 7 9 10 9 9 9 8 7 6 6 4 4 3 2 1 2 3 6 8 9 9 8 5 5 5 4 4 4 3 5 4 3
4 4 3 2 3 4 5 4 5 6 9 10 10 9 9 7 5 7 8 9 9 9 8 8 8 7 6 4 4 3 3 2 1 2 4 6 7 8 7 5 4 4 4 5 5 4 3 3 3
3 5 5 4 1 2 3 1 4 4 6 7 9 9 10 11 10 10 9 9 9 9 10 10 9 8 7 6 4 4 3 3 2 2 2 2 5 6 7 6 5 4 4 4 4 4 4 3 3
2 4 6 5 4 2 4 3 5 7 7 9 10 11 11 11 10 10 11 10 10 10 9 9 9 8 7 7 7 6 4 3 3 2 1 1 3 4 6 6 6 4 3 3 3 3 3 3 2
4 4 5 4 3 0 1 3 5 5 8 12 12 13 12 11 12 12 12 12 10 10 10 9 9 8 7 7 8 7 5 3 2 1 1 1 1 2 4 5 5 4 3 3 3 4 4 3 2
4 5 5 4 3 1 5 4 5 7 12 12 12 12 12 11 12 11 11 9 8 8 9 9 9 8 7 8 7 8 7 6 4 3 2 1 0 1 2 4 4 4 3 3 3 3 4 3 3
5 6 3 2 1 4 4 4 7 9 11 14 14 13 11 11 11 11 10 10 9 10 10 10 10 8 8 8 7 8 8 7 7 5 4 3 2 1 1 2 3 2 2 3 3 3 3 2 3
3 6 5 3 3 3 1 4 6 6 7 10 11 11 11 11 11 12 12 12 11 11 11 11 10 9 8 8 7 7 7 5 5 5 5 5 4 3 3 3 3 3 3 3 3 2 2 2 2
4 4 5 4 1 0 2 3 5 2 2 6 8 9 11 12 11 12 11 11 11 11 11 12 11 9 8 8 7 6 6 6 6 5 5 4 4 3 4 4 3 3 3 3 3 2 1 2 2
4 5 4 4 2 1 2 2 3 3 3 5 8 10 11 11 10 10 10 11 11 10 10 10 10 9 8 7 7 6 6 6 5 5 5 5 5 4 5 4 4 3 3 3 3 2 1 2 1
2 2 4 3 4 4 1 4 4 6 5 6 9 10 11 11 11 10 9 9 9 8 9 9 9 8 7 7 6 5 5 5 5 5 5 5 4 5 5 5 4 3 3 3 3 2 2 2 1
4 4 5 4 2 3 3 5 6 4 4 5 7 8 10 10 10 9 8 8 8 9 9 9 8 8 7 7 6 6 5 5 5 5 5 5 5 4 5 5 4 3 3 3 3 3 3 3 1
Wind_Direction
347 80 98 68 61 60 68 46 125 90 72 62 74 83 81 58 83 122 159 130 123 120 111 107 104 103 102 99 96 92 91 90 88 86 84 83 83 81 81 81 79 76 74 70 68 66 67 69 67
32 93 80 63 84 88 85 145 110 98 133 124 77 73 76 71 77 107 120 127 123 119 113 112 107 105 103 101 97 94 93 90 88 86 85 84 84 82 81 82 78 74 72 69 66 63 63 67 64
299 161 88 72 90 139 150 161 122 97 108 101 79 55 68 93 104 118 138 134 120 113 114 117 112 109 107 103 100 97 95 93 90 88 88 87 84 82 80 81 80 75 71 68 65 61 62 65 61
65 48 54 68 81 114 152 152 121 108 75 66 97 68 58 68 113 131 136 130 122 119 121 121 118 113 110 105 102 99 96 94 92 90 89 89 87 85 82 81 79 75 70 67 63 60 58 58 57
71 74 61 63 86 103 127 140 116 103 85 83 95 92 68 48 108 128 134 129 128 126 128 127 123 119 116 112 108 104 99 96 95 95 92 91 89 88 87 83 81 76 70 66 60 56 57 55 54
58 67 86 109 112 99 108 115 103 97 105 102 98 101 92 107 117 132 136 134 135 137 137 135 131 127 124 120 116 112 106 99 97 98 97 96 95 94 93 89 85 77 68 64 56 50 51 49 52
103 91 131 147 131 107 124 118 112 119 117 113 115 103 123 132 135 132 133 135 136 141 142 141 137 134 133 130 126 120 113 107 102 102 104 108 104 99 100 95 87 78 67 57 48 41 40 39 45
125 99 90 131 134 134 133 114 114 117 112 117 112 128 153 167 144 126 123 130 138 146 151 153 152 146 141 142 138 127 114 105 100 103 114 121 117 100 105 99 88 77 65 47 33 28 27 26 34
99 84 140 175 153 151 134 107 91 78 100 88 86 127 147 149 134 122 120 125 145 157 168 166 168 167 164 163 153 132 107 84 66 58 110 124 48 5 73 107 71 55 44 37 29 20 19 23 37
85 124 201 185 155 143 130 116 126 99 93 93 95 108 129 140 138 142 149 155 162 168 180 176 173 177 182 174 148 132 83 51 55 52 71 120 173 280 331 44 24 24 27 24 25 22 18 22 31
103 151 135 104 128 132 128 117 113 122 126 146 143 146 150 149 153 159 165 165 170 171 174 176 175 174 169 147 130 122 90 50 38 30 54 106 95 57 59 37 11 6 7 8 8 18 23 24 46
90 69 105 118 116 117 120 110 101 125 156 157 151 152 155 157 165 169 168 165 156 148 151 159 158 151 146 132 120 112 83 54 38 29 59 93 86 69 59 45 16 15 19 28 30 39 46 47 62
89 100 93 98 105 106 103 105 114 126 140 144 146 151 160 165 169 174 167 156 141 134 134 138 139 135 129 117 109 97 80 63 52 46 48 78 91 81 67 53 40 40 52 62 61 58 57 55 62
135 113 96 91 92 106 110 107 107 143 145 146 151 159 167 167 169 169 165 153 141 134 131 128 123 123 120 110 102 92 84 70 59 50 51 65 81 83 75 59 46 40 51 63 69 68 68 58 66
116 97 72 67 85 114 107 86 135 155 151 152 159 165 167 174 167 170 171 160 153 144 136 129 125 117 111 105 102 96 89 76 61 52 56 64 71 76 76 62 44 44 58 63 64 60 59 56 57
84 79 97 276 123 147 120 150 184 162 153 159 169 169 167 181 177 176 170 161 156 146 141 139 128 118 108 102 100 96 88 77 63 57 57 61 68 77 76 64 47 51 58 59 62 56 56 49 51
59 128 157 192 208 155 129 163 191 170 158 166 175 174 169 177 178 172 168 162 156 148 142 135 131 126 119 111 106 97 89 78 67 62 59 60 65 74 77 68 55 61 59 50 62 54 63 62 54
175 161 163 187 202 144 138 168 179 177 164 172 176 177 175 180 187 170 166 161 156 150 145 142 139 135 125 111 97 80 70 61 61 63 65 65 65 72 77 71 59 62 59 49 54 58 50 59 57
156 153 158 205 188 146 159 173 186 186 176 181 186 186 186 196 200 172 160 156 152 151 150 152 146 146 136 126 121 111 104 75 51 60 69 68 68 72 75 74 62 62 67 61 59 64 54 39 46
150 146 146 132 153 146 162 197 197 190 195 193 192 196 196 196 195 177 161 160 162 164 163 159 158 157 153 149 148 144 139 129 111 59 58 66 69 73 84 82 76 69 74 57 50 60 67 36 39
165 167 168 159 112 91 136 258 226 222 213 208 206 204 198 195 191 181 170 171 169 170 172 169 169 163 158 148 124 100 76 59 49 40 24 39 71 76 83 88 87 78 81 75 60 69 84 67 27
173 184 157 143 126 210 179 211 252 217 220 218 215 208 202 199 192 183 177 177 180 182 176 170 168 164 160 150 144 146 150 163 191 181 187 37 67 78 86 91 94 90 86 87 71 77 86 95 57
184 172 144 141 130 100 219 172 265 204 218 222 216 209 205 198 190 186 184 183 184 177 172 171 166 166 163 157 157 156 161 173 168 150 140 90 33 66 90 97 101 97 91 93 83 77 76 88 101
129 81 54 55 82 268 224 182 250 212 211 212 209 203 199 193 190 190 189 178 177 172 168 165 164 170 167 161 161 164 166 165 159 168 164 169 291 12 87 105 104 104 100 103 100 95 90 87 88
92 95 56 6 356 251 217 187 243 229 212 204 199 197 193 187 183 184 182 178 175 173 172 170 168 175 176 168 171 175 174 173 179 182 179 178 182 199 187 124 114 108 116 114 104 95 87 90 94
158 139 154 188 219 273 263 221 258 253 213 195 189 183 178 178 182 186 186 182 180 178 176 174 174 180 181 179 182 182 180 180 187 188 181 186 193 198 179 152 144 138 135 121 106 95 91 89 91
149 179 175 146 199 263 283 292 320 357 161 170 169 170 180 183 185 188 187 183 181 180 181 179 179 182 186 185 182 185 188 186 187 188 180 183 193 191 171 160 154 145 140 131 122 106 104 94 86
165 159 121 135 158 206 296 282 256 252 219 188 177 177 183 186 187 186 187 186 184 181 179 176 177 183 186 183 183 187 189 184 178 168 171 180 188 179 166 164 161 156 149 139 125 120 110 99 79
154 152 137 135 154 154 218 280 248 224 215 194 186 182 178 180 182 184 186 183 177 170 168 170 175 174 175 177 175 166 174 174 165 167 175 176 178 168 168 166 161 162 159 146 135 137 131 117 80
167 177 145 150 199 169 165 270 285 226 204 183 181 180 178 177 177 178 180 174 171 171 172 174 176 174 177 174 167 165 164 163 166 175 180 173 168 171 172 162 160 169 167 158 154 148 139 140 141
Height
1519 1520 1520 1521 1524 1531 1535 1532 1527 1527 1528 1529 1528 1529 1532 1537 1540 1549 1547 1546 1547 1547 1548 1548 1547 1547 1547 1547 1547 1547 1546 1546 1546 1545 1545 1545 1545 1544 1544 1544 1544 1543 1543 1543 1543 1543 1543 1543 1543
1520 1520 1521 1521 1528 1540 1538 1531 1529 1527 1528 1529 1530 1532 1534 1539 1541 1544 1545 1547 1548 1548 1548 1548 1548 1548 1548 1548 1548 1548 1547 1547 1547 1546 1546 1546 1545 1545 1544 1544 1544 1544 1543 1543 1543 1543 1543 1543 1543
1521 1521 1522 1523 1530 1537 1536 1530 1527 1527 1528 1528 1532 1535 1538 1542 1543 1545 1547 1548 1549 1549 1549 1549 1549 1549 1549 1549 1549 1549 1549 1548 1548 1547 1547 1546 1546 1545 1545 1545 1544 1544 1544 1544 1544 1543 1543 1543 1544
1521 1522 1522 1527 1532 1529 1528 1527 1526 1527 1529 1531 1533 1538 1541 1544 1544 1546 1548 1549 1550 1550 1550 1551 1551 1551 1551 1551 1550 1550 1550 1549 1549 1548 1548 1548 1547 1546 1546 1546 1545 1545 1545 1544 1544 1544 1544 1544 1545
1521 1522 1527 1533 1531 1528 1526 1526 1526 1528 1530 1533 1534 1540 1544 1546 1546 1548 1549 1551 1551 1551 1552 1552 1552 1552 1552 1552 1552 1551 1551 1551 1550 1550 1549 1549 1548 1548 1547 1547 1546 1546 1546 1545 1545 1545 1545 1545 1546
1522 1522 1534 1538 1532 1528 1528 1527 1528 1530 1533 1535 1537 1540 1546 1548 1548 1549 1551 1552 1553 1553 1553 1553 1554 1554 1554 1554 1553 1553 1553 1552 1552 1552 1551 1550 1550 1549 1549 1548 1548 1547 1547 1547 1547 1546 1546 1546 1547
1522 1526 1532 1533 1533 1531 1529 1528 1529 1531 1534 1536 1537 1541 1546 1549 1550 1551 1553 1553 1554 1555 1555 1555 1555 1556 1556 1555 1555 1555 1555 1554 1554 1553 1553 1552 1551 1551 1550 1550 1549 1549 1548 1548 1548 1548 1548 1548 1548
1521 1526 1531 1533 1533 1532 1529 1529 1531 1532 1535 1537 1538 1541 1546 1549 1551 1552 1553 1555 1555 1556 1557 1557 1557 1557 1557 1557 1557 1557 1556 1556 1556 1555 1555 1554 1553 1552 1552 1551 1551 1550 1550 1550 1550 1549 1549 1549 1549
1521 1529 1535 1532 1532 1531 1529 1530 1533 1534 1535 1537 1538 1540 1544 1548 1551 1553 1554 1556 1556 1557 1558 1558 1558 1559 1559 1559 1559 1558 1558 1558 1557 1557 1556 1555 1555 1554 1553 1553 1552 1552 1552 1552 1551 1551 1551 1551 1550
1521 1531 1529 1525 1525 1527 1528 1530 1533 1536 1537 1539 1541 1544 1547 1549 1551 1553 1554 1556 1557 1558 1559 1559 1560 1560 1560 1560 1560 1560 1559 1559 1558 1558 1557 1557 1556 1555 1555 1554 1554 1554 1553 1553 1553 1552 1552 1552 1552
1521 1526 1524 1524 1525 1527 1529 1531 1533 1535 1539 1540 1540 1544 1547 1550 1552 1553 1555 1556 1557 1558 1559 1560 1560 1561 1561 1561 1561 1561 1560 1560 1560 1559 1559 1558 1558 1557 1556 1556 1555 1555 1554 1554 1554 1553 1553 1553 1553
1523 1524 1524 1525 1526 1528 1529 1532 1534 1535 1538 1540 1542 1544 1547 1550 1552 1554 1555 1556 1558 1559 1560 1560 1561 1562 1562 1562 1562 1562 1562 1561 1561 1560 1560 1559 1559 1558 1558 1557 1556 1556 1555 1555 1554 1554 1554 1554 1554
1524 1526 1525 1526 1527 1529 1530 1532 1534 1537 1539 1542 1544 1546 1548 1550 1553 1554 1556 1557 1559 1559 1560 1561 1562 1562 1563 1563 1563 1563 1563 1562 1562 1561 1561 1560 1560 1559 1559 1558 1557 1557 1556 1556 1556 1555 1555 1555 1555
1525 1526 1527 1528 1530 1531 1532 1535 1536 1539 1541 1543 1545 1547 1549 1551 1553 1555 1556 1558 1559 1560 1561 1562 1563 1563 1564 1564 1564 1564 1563 1563 1563 1562 1562 1561 1561 1560 1560 1559 1558 1558 1557 1557 1557 1556 1556 1556 1556
1525 1528 1530 1531 1531 1533 1534 1539 1538 1540 1542 1544 1546 1547 1549 1551 1553 1555 1556 1558 1559 1561 1562 1563 1563 1564 1564 1564 1564 1564 1564 1564 1563 1563 1562 1562 1562 1561 1561 1560 1559 1559 1558 1558 1558 1558 1558 1557 1558
1527 1533 1538 1534 1533 1534 1538 1545 1540 1540 1542 1544 1546 1547 1549 1551 1553 1555 1556 1558 1559 1561 1562 1563 1564 1564 1565 1565 1565 1565 1565 1565 1564 1564 1563 1563 1563 1562 1561 1561 1560 1560 1559 1559 1559 1559 1559 1559 1559
1534 1541 1541 1538 1533 1534 1537 1543 1540 1541 1542 1544 1546 1547 1549 1551 1553 1554 1556 1558 1559 1561 1562 1563 1564 1564 1565 1565 1566 1566 1565 1565 1565 1565 1564 1564 1563 1563 1562 1562 1561 1561 1560 1560 1560 1560 1560 1560 1560
1540 1540 1540 1539 1534 1534 1538 1540 1539 1540 1542 1543 1545 1546 1548 1550 1552 1554 1556 1557 1559 1561 1562 1563 1564 1565 1565 1566 1566 1566 1566 1566 1566 1565 1565 1565 1564 1564 1563 1562 1562 1562 1561 1561 1561 1561 1561 1561 1561
1530 1535 1538 1536 1531 1535 1538 1539 1539 1539 1541 1542 1544 1545 1547 1549 1551 1553 1554 1556 1558 1560 1561 1562 1564 1565 1565 1566 1566 1566 1566 1566 1566 1566 1566 1565 1565 1565 1564 1564 1563 1563 1562 1562 1562 1562 1561 1562 1562
1530 1536 1537 1535 1531 1534 1539 1540 1538 1538 1539 1539 1541 1543 1545 1547 1550 1551 1553 1555 1557 1559 1560 1562 1563 1564 1565 1566 1566 1566 1567 1567 1566 1566 1566 1566 1566 1565 1565 1565 1564 1564 1563 1563 1563 1563 1562 1562 1563
1531 1534 1535 1536 1534 1534 1539 1544 1540 1538 1538 1539 1540 1541 1543 1545 1547 1549 1551 1554 1556 1558 1559 1561 1562 1564 1565 1565 1566 1566 1567 1567 1566 1567 1567 1567 1566 1566 1565 1565 1565 1565 1564 1564 1564 1564 1563 1563 1563
1534 1528 1529 1533 1540 1547 1542 1555 1543 1538 1537 1536 1537 1538 1539 1542 1544 1547 1549 1552 1554 1556 1558 1560 1561 1563 1564 1565 1565 1566 1566 1566 1567 1567 1567 1567 1567 1566 1566 1566 1565 1565 1565 1565 1564 1564 1564 1564 1563
1528 1525 1528 1532 1539 1546 1544 1551 1546 1536 1537 1534 1533 1534 1536 1538 1541 1544 1546 1549 1552 1554 1556 1559 1560 1562 1563 1564 1565 1565 1566 1566 1567 1567 1567 1567 1567 1567 1566 1566 1566 1566 1565 1565 1565 1564 1564 1564 1564
1524 1528 1532 1537 1543 1554 1545 1549 1546 1535 1529 1527 1528 1530 1532 1535 1538 1541 1544 1547 1550 1553 1555 1557 1559 1561 1562 1563 1564 1565 1565 1566 1566 1566 1566 1567 1567 1567 1566 1566 1566 1566 1566 1565 1565 1565 1564 1564 1564
1527 1540 1554 1556 1558 1554 1539 1542 1538 1521 1517 1519 1522 1525 1529 1532 1535 1539 1542 1545 1548 1550 1553 1555 1557 1559 1561 1562 1563 1564 1564 1565 1565 1566 1566 1566 1566 1566 1566 1566 1566 1566 1566 1565 1565 1565 1565 1564 1564
1530 1537 1554 1561 1560 1552 1539 1540 1527 1513 1512 1514 1518 1522 1526 1530 1533 1536 1539 1542 1544 1547 1550 1552 1555 1557 1559 1560 1561 1563 1563 1564 1564 1565 1566 1566 1566 1566 1566 1566 1566 1566 1566 1565 1565 1565 1565 1564 1564
1530 1535 1535 1545 1548 1552 1545 1533 1521 1512 1513 1514 1517 1521 1524 1527 1530 1533 1536 1539 1542 1545 1547 1550 1553 1555 1557 1559 1560 1561 1562 1563 1563 1564 1564 1565 1565 1566 1566 1566 1566 1566 1565 1565 1565 1565 1565 1564 1564
1521 1526 1537 1545 1553 1557 1547 1539 1534 1520 1517 1515 1516 1518 1521 1525 1528 1531 1534 1537 1540 1542 1545 1548 1551 1553 1555 1557 1558 1559 1560 1561 1562 1563 1563 1564 1564 1565 1565 1565 1565 1565 1565 1565 1565 1565 1564 1564 1563
1524 1527 1532 1541 1543 1553 1555 1545 1519 1517 1514 1514 1514 1516 1518 1522 1525 1529 1532 1535 1538 1541 1544 1546 1549 1551 1553 1554 1556 1557 1559 1560 1561 1561 1562 1563 1563 1564 1564 1564 1564 1564 1564 1564 1564 1564 1564 1563 1563
1517 1521 1528 1541 1544 1544 1548 1542 1513 1512 1511 1512 1513 1514 1517 1520 1524 1527 1530 1533 1536 1539 1542 1544 1546 1548 1550 1552 1554 1556 1557 1558 1559 1560 1561 1562 1562 1563 1563 1563 1563 1563 1564 1564 1563 1563 1563 1563 1562